Time,TemperatureF,DewpointF,PressureIn,WindDirection,WindDirectionDegrees,WindSpeedMPH,WindSpeedGustMPH,Humidity,HourlyPrecipIn,Conditions,Clouds,dailyrainin,SoftwareType,DateUTC
2013-03-31 00:02:00,52.0,-99.9,29.89,SSE,162,3.0,6.0,54,0.00,,,0.00,,2013-03-31 04:02:00,
2013-03-31 00:13:00,52.0,36.0,29.89,SSE,162,3.0,6.0,54,0.00,,,0.00,,2013-03-31 04:13:00,
2013-03-31 00:23:00,51.0,35.0,29.89,SSW,203,3.0,5.0,55,0.00,,,0.00,,2013-03-31 04:23:00,
2013-03-31 00:32:00,51.0,35.0,29.89,SSE,168,2.0,3.0,55,0.00,,,0.00,,2013-03-31 04:32:00,
2013-03-31 00:42:00,51.0,35.0,29.89,SSE,168,2.0,3.0,55,0.00,,,0.00,,2013-03-31 04:42:00,
2013-03-31 00:52:00,51.0,36.0,29.88,South,186,4.0,7.0,56,0.00,,,0.00,,2013-03-31 04:52:00,
2013-03-31 01:02:00,51.0,37.0,29.88,SW,224,4.0,7.0,59,0.00,,,0.00,,2013-03-31 05:02:00,
2013-03-31 01:12:00,51.0,37.0,29.88,SW,224,4.0,7.0,59,0.00,,,0.00,,2013-03-31 05:12:00,
2013-03-31 01:22:00,51.0,39.0,29.87,SW,233,6.0,9.0,64,0.00,,,0.00,,2013-03-31 05:22:00,
2013-03-31 01:32:00,51.0,42.0,29.87,SSW,212,6.0,9.0,71,0.00,,,0.00,,2013-03-31 05:32:00,
2013-03-31 01:42:00,51.0,42.0,29.87,SSW,212,6.0,9.0,71,0.00,,,0.00,,2013-03-31 05:42:00,
2013-03-31 01:53:00,50.0,43.0,29.86,SW,227,6.0,12.0,77,0.00,,,0.00,,2013-03-31 05:53:00,
2013-03-31 02:02:00,49.0,43.0,29.86,SSW,207,5.0,7.0,81,0.00,,,0.00,,2013-03-31 06:02:00,
2013-03-31 02:12:00,49.0,43.0,29.86,SSW,207,5.0,7.0,81,0.00,,,0.00,,2013-03-31 06:12:00,
2013-03-31 02:22:00,49.0,44.0,29.85,South,188,2.0,3.0,84,0.00,,,0.00,,2013-03-31 06:22:00,
2013-03-31 02:32:00,49.0,45.0,29.84,South,190,0.0,0.0,85,0.00,,,0.00,,2013-03-31 06:32:00,
2013-03-31 02:42:00,49.0,45.0,29.84,South,190,0.0,0.0,85,0.00,,,0.00,,2013-03-31 06:42:00,
2013-03-31 02:52:00,48.0,44.0,29.83,South,190,0.0,0.0,85,0.00,,,0.00,,2013-03-31 06:52:00,
2013-03-31 03:02:00,48.0,44.0,29.84,West,261,3.0,5.0,85,0.00,,,0.00,,2013-03-31 07:02:00,
2013-03-31 03:12:00,48.0,44.0,29.84,West,261,3.0,5.0,85,0.00,,,0.00,,2013-03-31 07:12:00,
2013-03-31 03:22:00,48.0,44.0,29.84,WNW,282,3.0,7.0,87,0.00,,,0.00,,2013-03-31 07:22:00,
2013-03-31 03:32:00,48.0,45.0,29.83,NW,304,2.0,7.0,88,0.00,,,0.00,,2013-03-31 07:32:00,
2013-03-31 03:42:00,48.0,45.0,29.83,NW,304,2.0,7.0,88,0.00,,,0.00,,2013-03-31 07:42:00,
2013-03-31 03:53:00,47.0,44.0,29.83,WNW,302,2.0,5.0,89,0.00,,,0.00,,2013-03-31 07:53:00,
2013-03-31 04:02:00,47.0,44.0,29.82,NW,313,1.0,4.0,89,0.00,,,0.00,,2013-03-31 08:02:00,
2013-03-31 04:12:00,47.0,44.0,29.82,NW,313,1.0,4.0,89,0.00,,,0.00,,2013-03-31 08:12:00,
2013-03-31 04:22:00,47.0,44.0,29.82,WNW,282,2.0,7.0,90,0.00,,,0.00,,2013-03-31 08:22:00,
2013-03-31 04:32:00,47.0,45.0,29.81,WNW,301,2.0,3.0,91,0.00,,,0.00,,2013-03-31 08:32:00,
2013-03-31 04:42:00,47.0,45.0,29.81,WNW,301,2.0,3.0,91,0.00,,,0.00,,2013-03-31 08:42:00,
2013-03-31 04:52:00,47.0,45.0,29.81,WNW,294,2.0,4.0,92,0.00,,,0.00,,2013-03-31 08:52:00,
2013-03-31 05:02:00,47.0,45.0,29.80,NW,313,2.0,5.0,92,0.00,,,0.00,,2013-03-31 09:02:00,
2013-03-31 05:12:00,47.0,45.0,29.80,NW,313,2.0,5.0,92,0.00,,,0.00,,2013-03-31 09:12:00,
2013-03-31 05:22:00,47.0,45.0,29.79,NW,310,3.0,6.0,92,0.00,,,0.00,,2013-03-31 09:22:00,
2013-03-31 05:33:00,47.0,45.0,29.78,NW,306,1.0,3.0,92,0.00,,,0.00,,2013-03-31 09:33:00,
2013-03-31 05:42:00,47.0,45.0,29.78,NW,306,1.0,3.0,92,0.00,,,0.00,,2013-03-31 09:42:00,
2013-03-31 05:53:00,47.0,45.0,29.79,NW,306,2.0,4.0,91,0.00,,,0.00,,2013-03-31 09:53:00,
2013-03-31 06:03:00,47.0,45.0,29.79,WNW,292,3.0,7.0,91,0.00,,,0.00,,2013-03-31 10:03:00,
2013-03-31 06:13:00,47.0,45.0,29.79,WNW,292,3.0,7.0,91,0.00,,,0.00,,2013-03-31 10:13:00,
2013-03-31 06:23:00,46.0,44.0,29.80,West,269,4.0,9.0,92,0.01,,,0.01,,2013-03-31 10:23:00,
2013-03-31 06:32:00,46.0,44.0,29.79,West,267,2.0,10.0,92,0.01,,,0.01,,2013-03-31 10:32:00,
2013-03-31 06:42:00,46.0,44.0,29.79,West,267,2.0,10.0,92,0.01,,,0.01,,2013-03-31 10:42:00,
2013-03-31 06:53:00,46.0,44.0,29.78,WNW,294,2.0,7.0,91,0.01,,,0.01,,2013-03-31 10:53:00,
2013-03-31 07:02:00,46.0,43.0,29.79,West,272,3.0,5.0,90,0.01,,,0.01,,2013-03-31 11:02:00,
2013-03-31 07:12:00,46.0,43.0,29.79,West,272,3.0,5.0,90,0.01,,,0.01,,2013-03-31 11:12:00,
2013-03-31 07:23:00,46.0,43.0,29.80,WNW,290,3.0,8.0,90,0.00,,,0.01,,2013-03-31 11:23:00,
2013-03-31 07:32:00,46.0,43.0,29.80,WSW,242,4.0,9.0,89,0.00,,,0.01,,2013-03-31 11:32:00,
2013-03-31 07:42:00,46.0,43.0,29.80,WSW,242,4.0,9.0,89,0.00,,,0.01,,2013-03-31 11:42:00,
2013-03-31 07:52:00,46.0,43.0,29.80,WSW,249,3.0,7.0,90,0.00,,,0.01,,2013-03-31 11:52:00,
2013-03-31 08:02:00,46.0,43.0,29.80,WNW,292,2.0,7.0,90,0.00,,,0.01,,2013-03-31 12:02:00,
2013-03-31 08:12:00,46.0,43.0,29.80,WNW,292,2.0,7.0,90,0.00,,,0.01,,2013-03-31 12:12:00,
2013-03-31 08:22:00,46.0,43.0,29.80,West,273,3.0,9.0,90,0.00,,,0.01,,2013-03-31 12:22:00,
2013-03-31 08:33:00,46.0,43.0,29.81,WNW,286,5.0,8.0,90,0.00,,,0.01,,2013-03-31 12:33:00,
2013-03-31 08:42:00,46.0,43.0,29.81,WNW,286,5.0,8.0,90,0.00,,,0.01,,2013-03-31 12:42:00,
2013-03-31 08:53:00,46.0,44.0,29.80,WNW,284,5.0,10.0,91,0.00,,,0.01,,2013-03-31 12:53:00,
2013-03-31 09:02:00,46.0,44.0,29.80,West,271,5.0,10.0,91,0.00,,,0.01,,2013-03-31 13:02:00,
2013-03-31 09:12:00,46.0,44.0,29.80,West,271,5.0,10.0,91,0.00,,,0.01,,2013-03-31 13:12:00,
2013-03-31 09:22:00,46.0,44.0,29.80,West,260,7.0,12.0,92,0.00,,,0.01,,2013-03-31 13:22:00,
2013-03-31 09:32:00,46.0,44.0,29.81,SW,225,6.0,9.0,94,0.00,,,0.01,,2013-03-31 13:32:00,
2013-03-31 09:42:00,46.0,44.0,29.81,SW,225,6.0,9.0,94,0.00,,,0.01,,2013-03-31 13:42:00,
2013-03-31 09:53:00,46.0,44.0,29.80,WSW,257,6.0,10.0,94,0.00,,,0.01,,2013-03-31 13:53:00,
2013-03-31 10:02:00,46.0,45.0,29.81,WNW,284,7.0,11.0,95,0.00,,,0.01,,2013-03-31 14:02:00,
2013-03-31 10:12:00,46.0,45.0,29.81,WNW,284,7.0,11.0,95,0.00,,,0.01,,2013-03-31 14:12:00,
2013-03-31 10:22:00,46.0,45.0,29.81,West,268,6.0,9.0,95,0.00,,,0.01,,2013-03-31 14:22:00,
2013-03-31 10:32:00,46.0,45.0,29.81,West,278,7.0,12.0,95,0.00,,,0.01,,2013-03-31 14:32:00,
2013-03-31 10:42:00,46.0,45.0,29.81,West,278,7.0,12.0,95,0.00,,,0.01,,2013-03-31 14:42:00,
2013-03-31 10:52:00,46.0,45.0,29.82,West,263,6.0,11.0,95,0.00,,,0.01,,2013-03-31 14:52:00,
2013-03-31 11:02:00,46.0,45.0,29.82,WSW,251,5.0,11.0,95,0.00,,,0.01,,2013-03-31 15:02:00,
2013-03-31 11:12:00,46.0,45.0,29.82,WSW,251,5.0,11.0,95,0.00,,,0.01,,2013-03-31 15:12:00,
2013-03-31 11:22:00,46.0,45.0,29.82,SW,235,6.0,11.0,95,0.00,,,0.01,,2013-03-31 15:22:00,
2013-03-31 11:33:00,46.0,44.0,29.82,WNW,283,6.0,11.0,94,0.00,,,0.01,,2013-03-31 15:33:00,
2013-03-31 11:43:00,46.0,44.0,29.82,WNW,283,6.0,11.0,94,0.00,,,0.01,,2013-03-31 15:43:00,
2013-03-31 11:54:00,46.0,44.0,29.83,SW,225,4.0,9.0,94,0.00,,,0.01,,2013-03-31 15:54:00,
2013-03-31 12:03:00,47.0,45.0,29.83,WSW,240,7.0,15.0,92,0.00,,,0.01,,2013-03-31 16:03:00,
2013-03-31 12:13:00,47.0,45.0,29.83,WSW,240,7.0,15.0,92,0.00,,,0.01,,2013-03-31 16:13:00,
2013-03-31 12:23:00,47.0,45.0,29.83,West,273,6.0,16.0,91,0.00,,,0.01,,2013-03-31 16:23:00,
2013-03-31 12:33:00,47.0,44.0,29.83,West,269,6.0,11.0,90,0.00,,,0.01,,2013-03-31 16:33:00,
2013-03-31 12:42:00,47.0,44.0,29.83,West,269,6.0,11.0,90,0.00,,,0.01,,2013-03-31 16:42:00,
2013-03-31 12:53:00,48.0,45.0,29.83,WNW,285,6.0,11.0,88,0.00,,,0.01,,2013-03-31 16:53:00,
2013-03-31 13:03:00,49.0,45.0,29.83,WSW,258,7.0,11.0,85,0.00,,,0.01,,2013-03-31 17:03:00,
2013-03-31 13:12:00,49.0,45.0,29.83,WSW,258,7.0,11.0,85,0.00,,,0.01,,2013-03-31 17:12:00,
2013-03-31 13:22:00,50.0,44.0,29.82,West,271,9.0,16.0,79,0.00,,,0.01,,2013-03-31 17:22:00,
2013-03-31 13:32:00,51.0,45.0,29.81,WNW,288,9.0,13.0,79,0.00,,,0.01,,2013-03-31 17:32:00,
2013-03-31 13:42:00,51.0,45.0,29.81,WNW,288,9.0,13.0,79,0.00,,,0.01,,2013-03-31 17:42:00,
2013-03-31 13:52:00,52.0,44.0,29.80,WSW,245,10.0,15.0,74,0.00,,,0.01,,2013-03-31 17:52:00,
2013-03-31 14:02:00,53.0,43.0,29.80,NNW,343,6.0,13.0,69,0.00,,,0.01,,2013-03-31 18:02:00,
2013-03-31 14:12:00,53.0,43.0,29.80,NNW,343,6.0,13.0,69,0.00,,,0.01,,2013-03-31 18:12:00,
2013-03-31 14:22:00,54.0,43.0,29.79,West,271,9.0,14.0,67,0.00,,,0.01,,2013-03-31 18:22:00,
2013-03-31 14:32:00,55.0,43.0,29.78,West,265,10.0,16.0,63,0.00,,,0.01,,2013-03-31 18:32:00,
2013-03-31 14:42:00,55.0,43.0,29.78,West,265,10.0,16.0,63,0.00,,,0.01,,2013-03-31 18:42:00,
2013-03-31 14:53:00,55.0,42.0,29.78,SW,234,10.0,13.0,62,0.00,,,0.01,,2013-03-31 18:53:00,
2013-03-31 15:03:00,56.0,43.0,29.77,WSW,241,9.0,16.0,61,0.00,,,0.01,,2013-03-31 19:03:00,
2013-03-31 15:12:00,56.0,43.0,29.77,WSW,241,9.0,16.0,61,0.00,,,0.01,,2013-03-31 19:12:00,
2013-03-31 15:22:00,56.0,41.0,29.78,SW,223,10.0,17.0,58,0.00,,,0.01,,2013-03-31 19:22:00,
2013-03-31 15:32:00,56.0,41.0,29.78,WSW,244,9.0,16.0,57,0.00,,,0.01,,2013-03-31 19:32:00,
2013-03-31 15:42:00,56.0,41.0,29.78,WSW,244,9.0,16.0,57,0.00,,,0.01,,2013-03-31 19:42:00,
2013-03-31 15:54:00,57.0,41.0,29.77,WSW,250,12.0,21.0,55,0.00,,,0.01,,2013-03-31 19:54:00,
2013-03-31 16:02:00,57.0,41.0,29.77,West,280,11.0,18.0,54,0.00,,,0.01,,2013-03-31 20:02:00,
2013-03-31 16:12:00,57.0,41.0,29.77,West,280,11.0,18.0,54,0.00,,,0.01,,2013-03-31 20:12:00,
2013-03-31 16:22:00,58.0,41.0,29.77,West,275,10.0,13.0,54,0.00,,,0.01,,2013-03-31 20:22:00,
2013-03-31 16:33:00,58.0,41.0,29.77,SW,223,11.0,18.0,54,0.00,,,0.01,,2013-03-31 20:33:00,
2013-03-31 16:43:00,58.0,41.0,29.77,SW,223,11.0,18.0,54,0.00,,,0.01,,2013-03-31 20:43:00,
2013-03-31 16:53:00,59.0,42.0,29.77,WNW,290,12.0,21.0,53,0.00,,,0.01,,2013-03-31 20:53:00,
2013-03-31 17:02:00,58.0,41.0,29.77,WSW,242,12.0,22.0,53,0.00,,,0.01,,2013-03-31 21:02:00,
2013-03-31 17:12:00,58.0,41.0,29.77,WSW,242,12.0,22.0,53,0.00,,,0.01,,2013-03-31 21:12:00,
2013-03-31 17:22:00,58.0,41.0,29.77,SW,236,13.0,19.0,54,0.00,,,0.01,,2013-03-31 21:22:00,
2013-03-31 17:33:00,58.0,42.0,29.77,WSW,237,11.0,19.0,55,0.00,,,0.01,,2013-03-31 21:33:00,
2013-03-31 17:43:00,58.0,42.0,29.77,WSW,237,11.0,19.0,55,0.00,,,0.01,,2013-03-31 21:43:00,
2013-03-31 17:53:00,58.0,41.0,29.77,West,270,12.0,21.0,53,0.00,,,0.01,,2013-03-31 21:53:00,
2013-03-31 18:03:00,58.0,41.0,29.77,WSW,240,12.0,17.0,53,0.00,,,0.01,,2013-03-31 22:03:00,
2013-03-31 18:13:00,58.0,41.0,29.77,WSW,240,12.0,17.0,53,0.00,,,0.01,,2013-03-31 22:13:00,
2013-03-31 18:23:00,58.0,41.0,29.77,WSW,258,13.0,20.0,53,0.00,,,0.01,,2013-03-31 22:23:00,
2013-03-31 18:33:00,58.0,40.0,29.77,WSW,245,12.0,18.0,52,0.00,,,0.01,,2013-03-31 22:33:00,
2013-03-31 18:42:00,58.0,40.0,29.77,WSW,245,12.0,18.0,52,0.00,,,0.01,,2013-03-31 22:42:00,
2013-03-31 18:53:00,58.0,40.0,29.77,West,279,11.0,21.0,51,0.00,,,0.01,,2013-03-31 22:53:00,
2013-03-31 19:03:00,58.0,40.0,29.77,SW,232,15.0,21.0,51,0.00,,,0.01,,2013-03-31 23:03:00,
2013-03-31 19:13:00,58.0,40.0,29.77,SW,232,15.0,21.0,51,0.00,,,0.01,,2013-03-31 23:13:00,
2013-03-31 19:22:00,58.0,40.0,29.77,SW,225,12.0,20.0,52,0.00,,,0.01,,2013-03-31 23:22:00,
2013-03-31 19:32:00,58.0,41.0,29.77,West,263,13.0,22.0,53,0.00,,,0.01,,2013-03-31 23:32:00,
2013-03-31 19:42:00,58.0,41.0,29.77,West,263,13.0,22.0,53,0.00,,,0.01,,2013-03-31 23:42:00,
2013-03-31 19:52:00,57.0,40.0,29.77,WSW,240,11.0,19.0,53,0.00,,,0.01,,2013-03-31 23:52:00,
2013-03-31 20:02:00,57.0,40.0,29.77,West,277,11.0,18.0,53,0.00,,,0.01,,2013-04-01 00:02:00,
2013-03-31 20:12:00,57.0,40.0,29.77,West,277,11.0,18.0,53,0.00,,,0.01,,2013-04-01 00:12:00,
2013-03-31 20:22:00,57.0,41.0,29.77,South,190,9.0,11.0,55,0.00,,,0.01,,2013-04-01 00:22:00,
2013-03-31 20:32:00,56.0,41.0,29.77,WSW,257,7.0,10.0,57,0.00,,,0.01,,2013-04-01 00:32:00,
2013-03-31 20:42:00,56.0,41.0,29.77,WSW,257,7.0,10.0,57,0.00,,,0.01,,2013-04-01 00:42:00,
2013-03-31 20:52:00,56.0,42.0,29.77,SW,234,5.0,8.0,59,0.00,,,0.01,,2013-04-01 00:52:00,
2013-03-31 21:02:00,56.0,42.0,29.78,WNW,284,6.0,11.0,60,0.00,,,0.01,,2013-04-01 01:02:00,
2013-03-31 21:12:00,56.0,42.0,29.78,WNW,284,6.0,11.0,60,0.00,,,0.01,,2013-04-01 01:12:00,
2013-03-31 21:22:00,55.0,42.0,29.78,SW,232,6.0,10.0,61,0.00,,,0.01,,2013-04-01 01:22:00,
2013-03-31 21:32:00,55.0,43.0,29.78,WSW,244,5.0,8.0,63,0.00,,,0.01,,2013-04-01 01:32:00,
2013-03-31 21:42:00,55.0,43.0,29.78,WSW,244,5.0,8.0,63,0.00,,,0.01,,2013-04-01 01:42:00,
2013-03-31 21:52:00,55.0,43.0,29.79,West,269,7.0,14.0,63,0.00,,,0.01,,2013-04-01 01:52:00,
2013-03-31 22:02:00,54.0,43.0,29.80,NNW,347,9.0,18.0,65,0.00,,,0.01,,2013-04-01 02:02:00,
2013-03-31 22:12:00,54.0,43.0,29.80,NNW,347,9.0,18.0,65,0.00,,,0.01,,2013-04-01 02:12:00,
2013-03-31 22:22:00,53.0,43.0,29.80,NNW,334,3.0,7.0,70,0.00,,,0.01,,2013-04-01 02:22:00,
2013-03-31 22:32:00,52.0,44.0,29.80,WNW,295,1.0,3.0,74,0.00,,,0.01,,2013-04-01 02:32:00,
2013-03-31 22:42:00,52.0,44.0,29.80,WNW,295,1.0,3.0,74,0.00,,,0.01,,2013-04-01 02:42:00,
2013-03-31 22:53:00,52.0,44.0,29.80,WNW,299,0.0,1.0,74,0.00,,,0.01,,2013-04-01 02:53:00,
2013-03-31 23:02:00,51.0,43.0,29.80,WNW,299,0.0,2.0,74,0.00,,,0.01,,2013-04-01 03:02:00,
2013-03-31 23:12:00,51.0,43.0,29.80,WNW,299,0.0,2.0,74,0.00,,,0.01,,2013-04-01 03:12:00,
2013-03-31 23:22:00,51.0,43.0,29.80,WNW,292,1.0,3.0,75,0.00,,,0.01,,2013-04-01 03:22:00,
2013-03-31 23:34:00,51.0,43.0,29.80,SW,227,3.0,4.0,75,0.00,,,0.01,,2013-04-01 03:34:00,
2013-03-31 23:43:00,51.0,43.0,29.80,SW,227,3.0,4.0,75,0.00,,,0.01,,2013-04-01 03:43:00,
2013-03-31 23:53:00,52.0,43.0,29.80,West,259,5.0,7.0,72,0.00,,,0.01,,2013-04-01 03:53:00,